Regional Weather Roundup
Issued by NWS San Diego, CA

Home | Current Version | Previous Version | Text Only | Print | Product List | Glossary On
Versions: 1 2 3 4 5 6 7 8 9 10 11 12 13 14 15 16 17 18 19 20 21 22 23 24 25 26 27 28 29 30 31 32 33 34 35 36 37 38 39 40 41 42 43 44 45 46 47 48 49 50
000
ASUS46 KSGX 291210
RWRSGX

SAN DIEGO HOURLY WEATHER ROUNDUP
NATIONAL WEATHER SERVICE SAN DIEGO CA
400 AM PST MON DEC 29 2014

NOTE: "FAIR" INDICATES FEW OR NO CLOUDS BELOW 12,000 FEET WITH NO
SIGNIFICANT WEATHER AND/OR OBSTRUCTIONS TO VISIBILITY.

CAZ042-043-060-061-PZZ750-775-291300-

GREATER SAN DIEGO AREA

CITY           SKY/WX    TMP DP  RH WIND       PRES   REMARKS
LINDBERGH FLD  PTCLDY    50  33  52 CALM      30.15F
NATIONAL CITY    N/A     44  36  74 CALM      30.15F
CHULA VISTA      N/A     41  37  84 CALM      30.07
IMPERIAL BEACH PTCLDY    46  36  68 E9        30.13F
BROWN FIELD    CLEAR     43  32  65 SE8       30.13F
MIRAMAR MCAS   PTCLDY    45  34  65 E6        30.12F
MONTGOMERY FLD CLEAR     43  35  73 CALM      30.13F

$$

NORTH SAN DIEGO COUNTY

CITY           SKY/WX    TMP DP  RH WIND       PRES   REMARKS
CAMP PENDLETON CLEAR     36  30  79 CALM      30.14F
OCEANSIDE AP   CLEAR     36  33  89 NE3       30.13F
OCEANSIDE HBR    N/A     43  37  79 E6        30.16F
CARLSBAD         N/A     46  36  68 E6        30.12F
DEL MAR          N/A     47  40  77 CALM      30.16F
LA JOLLA SCRIP   N/A     48  38  68 CALM      30.11F
FALLBROOK        N/A     43  41  92 CALM      30.15
ESCONDIDO        N/A     38  33  80 CALM      30.17F
SAN MARCOS       N/A     46  37  72 E6        30.13F
POWAY            N/A     36  33  88 CALM      30.18S

$$

EAST SAN DIEGO COUNTY

CITY           SKY/WX    TMP DP  RH WIND       PRES   REMARKS
RAMONA         CLEAR     30  28  92 CALM      30.12F FOG
SANTEE LAKES     N/A     37  33  89 CALM      30.17F
JAMUL            N/A     38  33  81 CALM      30.15F
DESCANSO N       N/A     31  18  60 E7        30.10  WCI  24
MT. LAGUNA OBS   N/A     40  19  42 N7        29.66
CAMPO            N/A     24  19  81 NE8       30.08S WCI  15

$$

ORANGE COUNTY AND THE LOS ANGELES BASIN

CITY           SKY/WX    TMP DP  RH WIND       PRES   REMARKS
JOHN WAYNE AP  CLEAR     47  35  63 NE5       30.13F
LAGUNA BEACH     N/A     41  36  83 N3        30.09F
LAKE FOREST FR   N/A     44  30  58 NE3       30.04S
SANTA ANA        N/A     40  35  83 CALM      30.08F
HUNTINGTON BCH   N/A     39  37  90 CALM      30.15F
LOS ALAMITOS   FAIR      42  37  82 N2        30.13F
FULLERTON      CLEAR     41  36  82 CALM      30.13F
LONG BEACH     CLEAR     44  37  76 CALM      30.13F
L.A. AP        CLEAR     43  34  70 E3        30.14F
L.A. DOWNTOWN  CLEAR     42  33  70 CALM      30.13F

$$

THE INLAND EMPIRE

CITY           SKY/WX    TMP DP  RH WIND       PRES   REMARKS
CORONA         CLEAR     29  28  96 CALM      30.15F
CHINO          CLEAR     33  30  88 CALM      30.15F
ONTARIO        CLEAR     40  29  64 CALM      30.13F
RIVERSIDE AP   CLEAR     38  29  70 E5        30.13F WCI  34
RIV CYN CREST    N/A     39  37  92 CALM        N/A
MORENO VALLEY    N/A     39  37  92 CALM      29.30
MARCH ARB      CLEAR     29  27  92 CALM      30.12F
HORSETHIEF CYN   N/A     36  25  63 S3        30.15
PERRIS           N/A     35  32  87 CALM      30.13
MENIFEE          N/A     32  31  96 CALM      30.20
HEMET EAST       N/A     38  26  60 CALM      30.15
FRENCH VALLEY  FAIR      34  30  86 CALM      30.13F
TEMECULA         N/A     35  33  94 CALM      30.13

$$

SAN BERNARDINO AND RIVERSIDE COUNTY MOUNTAINS

CITY           SKY/WX    TMP DP  RH WIND       PRES   REMARKS
BIG BEAR AP    CLEAR     27   3  36 W7        30.12F WCI  19
PINE COVE        N/A     41  -2  16 N3        30.10F

$$

SOUTHERN DESERT INCLUDING THE COACHELLA VALLEY

CITY           SKY/WX    TMP DP  RH WIND       PRES   REMARKS
PALM SPRINGS   CLEAR     40  23  50 W3        30.12F
PALM DESERT      N/A     34  26  73 CALM      29.50R
THERMAL        CLEAR     31  21  66 N6        30.11F WCI  25
BLYTHE         CLEAR     32  20  61 NW3       30.12F
IMPERIAL AP    CLEAR     34  19  54 W6        30.12R WCI  29
EL CENTRO NAS  CLEAR     31  11  43 W7        30.12S WCI  24
YUMA AZ        MOCLDY   N/A N/A N/A NE3       30.11S

$$

UPPER DESERT

CITY           SKY/WX    TMP DP  RH WIND       PRES   REMARKS
VICTORVILLE AP   N/A     43  23  45 CALM      30.08F
HESPERIA         N/A     34  21  60 CALM      30.30F
PALMDALE       CLEAR     41  23  48 W7        30.09F
LANCASTER      CLEAR     44  25  47 W10       30.09F
EDWARDS AFB    CLEAR     29  21  71 N6        30.06F WCI  23
DAGGETT        CLEAR     30  14  51 CALM      30.10F
29 PALMS N     CLEAR     28  10  46 NW3       30.16F
NEEDLES        CLEAR     33  15  47 NW3       30.13S

$$

REGIONAL REPORTS

CITY           SKY/WX    TMP DP  RH WIND       PRES   REMARKS
SANTA BARBARA  CLEAR     40  35  83 CALM      30.12F
SANDBERG       CLEAR     41  23  48 NW28      30.12F
MT. WILSON       N/A     43  -4  14 NE2         N/A
LAS VEGAS NV   CLEAR     31  13  47 S13       30.07F WCI  21
PHOENIX AZ     CLEAR     38  25  59 E5        30.10F WCI  34
TIJUANA        CLEAR     45  32  61 E5        30.16F
ENSENADA NW      N/A     51  32  48 N3        30.11S

$$

OFFSHORE ISLANDS

CITY           SKY/WX    TMP DP  RH WIND       PRES   REMARKS
CATALINA ARPT  CLEAR     47  43  86 CALM      30.12F
SAN NICOLAS IS CLEAR    N/A N/A N/A W7        30.12F

$$

MARINE AND OFFSHORE BUOY REPORTS

STATION/POSITION SKY/WX   TEMP    WIND        PRES    SWELL
                          AIR SEA DIR/SP/G            HT/PER/DIR
                          (F)     (DEG/KT/KT) (MB)    (FT/S/D)
TANNER BANKS               60 63  320/ 14/ 16 1020.4F   5/310/16
S CLEMENTE BASIN           59 64  290/  6/  8 1019.9F   2/240/14
SAN NICOLAS IS.               61                N/A     5/300/14
SO. S. ROSA ISLA           58 59  320/ 14/ 17 1020.0F   5/14
W. S. BARBARA CH           58 62  330/ 17/ 21 1019.8F   5/320/15
S. MONICA BASIN            57 62  100/  4/  4 1020.3F   2/240/14
S PEDRO CHANNEL               62                N/A     2/230/13
DANA POINT                    63                N/A     2/240/14
CMP PENDLETON NS              62                N/A     2/220/14
OCEANSIDE OFFSHR              63                N/A     2/230/13
TORREY PINES OTR              64                N/A     2/230/13
LA JOLLA 1                 50 62   90/ 13/ 14 1020.3F
MISSION BAY BUOY              63                N/A     2/220/13
SAN DIEGO BAY                 63              1021.1F
POINT LOMA SOUTH              64                N/A     2/260/14

$$




USA.gov is the U.S. government's official web portal to all federal, state and local government web resources and services.